Time,TemperatureF,DewpointF,PressureIn,WindDirection,WindDirectionDegrees,WindSpeedMPH,WindSpeedGustMPH,Humidity,HourlyPrecipIn,Conditions,Clouds,dailyrainin,SoftwareType,DateUTC
2013-01-11 00:11:00,34.2,24.0,30.51,NNE,20,2.0,2.0,67,0.00,,,0.00,weatherlink.com 1.10,2013-01-11 05:11:00,
2013-01-11 00:26:00,34.2,24.0,30.52,West,259,0.0,2.0,67,0.00,,,0.00,weatherlink.com 1.10,2013-01-11 05:26:00,
2013-01-11 00:41:00,34.0,24.0,30.52,WNW,283,1.0,3.0,68,0.00,,,0.00,weatherlink.com 1.10,2013-01-11 05:41:00,
2013-01-11 00:58:00,33.6,24.0,30.51,WNW,284,0.0,2.0,68,0.00,,,0.00,weatherlink.com 1.10,2013-01-11 05:58:00,
2013-01-11 01:11:00,32.5,24.0,30.51,WNW,284,0.0,0.0,71,0.00,,,0.00,weatherlink.com 1.10,2013-01-11 06:11:00,
2013-01-11 01:26:00,31.4,24.0,30.50,SW,219,0.0,0.0,73,0.00,,,0.00,weatherlink.com 1.10,2013-01-11 06:26:00,
2013-01-11 01:41:00,30.5,24.0,30.51,SE,139,0.0,1.0,76,0.00,,,0.00,weatherlink.com 1.10,2013-01-11 06:41:00,
2013-01-11 01:56:00,31.2,24.0,30.50,NW,323,0.0,0.0,75,0.00,,,0.00,weatherlink.com 1.10,2013-01-11 06:56:00,
2013-01-11 02:11:00,30.9,24.0,30.50,NW,320,0.0,0.0,75,0.00,,,0.00,weatherlink.com 1.10,2013-01-11 07:11:00,
2013-01-11 02:26:00,30.1,24.0,30.50,NW,320,0.0,0.0,77,0.00,,,0.00,weatherlink.com 1.10,2013-01-11 07:26:00,
2013-01-11 02:41:00,29.1,23.0,30.50,NW,323,0.0,0.0,79,0.00,,,0.00,weatherlink.com 1.10,2013-01-11 07:41:00,
2013-01-11 02:56:00,28.6,23.0,30.50,ESE,115,0.0,2.0,80,0.00,,,0.00,weatherlink.com 1.10,2013-01-11 07:56:00,
2013-01-11 03:11:00,28.8,24.0,30.50,ESE,115,0.0,0.0,81,0.00,,,0.00,weatherlink.com 1.10,2013-01-11 08:11:00,
2013-01-11 03:26:00,28.0,23.0,30.49,SE,124,0.0,0.0,82,0.00,,,0.00,weatherlink.com 1.10,2013-01-11 08:26:00,
2013-01-11 03:41:00,27.5,23.0,30.49,SE,124,0.0,0.0,83,0.00,,,0.00,weatherlink.com 1.10,2013-01-11 08:41:00,
2013-01-11 03:56:00,27.6,23.0,30.48,SE,124,0.0,0.0,84,0.00,,,0.00,weatherlink.com 1.10,2013-01-11 08:56:00,
2013-01-11 04:11:00,27.4,24.0,30.48,SE,124,0.0,0.0,85,0.00,,,0.00,weatherlink.com 1.10,2013-01-11 09:11:00,
2013-01-11 04:26:00,27.7,24.0,30.47,SE,124,0.0,0.0,85,0.00,,,0.00,weatherlink.com 1.10,2013-01-11 09:26:00,
2013-01-11 04:41:00,28.0,24.0,30.47,SE,124,0.0,0.0,83,0.00,,,0.00,weatherlink.com 1.10,2013-01-11 09:41:00,
2013-01-11 04:56:00,28.9,24.0,30.47,West,273,0.0,2.0,82,0.00,,,0.00,weatherlink.com 1.10,2013-01-11 09:56:00,
2013-01-11 05:11:00,29.1,24.0,30.48,WNW,284,0.0,0.0,80,0.00,,,0.00,weatherlink.com 1.10,2013-01-11 10:11:00,
2013-01-11 05:26:00,28.2,23.0,30.48,WNW,284,0.0,0.0,81,0.00,,,0.00,weatherlink.com 1.10,2013-01-11 10:26:00,
2013-01-11 05:41:00,27.6,23.0,30.49,WNW,284,0.0,0.0,83,0.00,,,0.00,weatherlink.com 1.10,2013-01-11 10:41:00,
2013-01-11 05:56:00,27.6,24.0,30.49,WNW,284,0.0,0.0,85,0.00,,,0.00,weatherlink.com 1.10,2013-01-11 10:56:00,
2013-01-11 06:11:00,27.7,24.0,30.49,WNW,284,0.0,0.0,85,0.00,,,0.00,weatherlink.com 1.10,2013-01-11 11:11:00,
2013-01-11 06:26:00,28.0,24.0,30.49,SE,125,0.0,1.0,85,0.00,,,0.00,weatherlink.com 1.10,2013-01-11 11:26:00,
2013-01-11 06:42:00,27.9,24.0,30.49,SE,125,0.0,0.0,85,0.00,,,0.00,weatherlink.com 1.10,2013-01-11 11:42:00,
2013-01-11 07:12:00,28.1,25.0,30.50,SE,125,0.0,0.0,86,0.00,,,0.00,weatherlink.com 1.10,2013-01-11 12:12:00,
2013-01-11 07:27:00,28.2,24.0,30.50,SE,125,0.0,1.0,85,0.00,,,0.00,weatherlink.com 1.10,2013-01-11 12:27:00,
2013-01-11 07:42:00,28.1,25.0,30.50,SE,125,0.0,0.0,86,0.00,,,0.00,weatherlink.com 1.10,2013-01-11 12:42:00,
2013-01-11 07:57:00,28.5,25.0,30.50,SE,125,0.0,0.0,86,0.00,,,0.00,weatherlink.com 1.10,2013-01-11 12:57:00,
2013-01-11 08:12:00,29.1,25.0,30.50,SE,125,0.0,1.0,85,0.00,,,0.00,weatherlink.com 1.10,2013-01-11 13:12:00,
2013-01-11 08:27:00,30.0,26.0,30.50,SE,125,0.0,1.0,84,0.00,,,0.00,weatherlink.com 1.10,2013-01-11 13:27:00,
2013-01-11 08:42:00,31.0,26.0,30.50,SE,125,0.0,0.0,83,0.00,,,0.00,weatherlink.com 1.10,2013-01-11 13:42:00,
2013-01-11 08:57:00,32.1,26.0,30.49,ESE,113,0.0,1.0,78,0.00,,,0.00,weatherlink.com 1.10,2013-01-11 13:57:00,
2013-01-11 09:12:00,33.0,26.0,30.49,NW,321,0.0,1.0,75,0.00,,,0.00,weatherlink.com 1.10,2013-01-11 14:12:00,
2013-01-11 09:27:00,34.0,26.0,30.49,NNE,22,0.0,1.0,73,0.00,,,0.00,weatherlink.com 1.10,2013-01-11 14:27:00,
2013-01-11 09:42:00,34.4,26.0,30.49,West,262,0.0,3.0,72,0.00,,,0.00,weatherlink.com 1.10,2013-01-11 14:42:00,
2013-01-11 09:57:00,35.6,26.0,30.49,West,268,2.0,2.0,69,0.00,,,0.00,weatherlink.com 1.10,2013-01-11 14:57:00,
2013-01-11 10:12:00,36.9,27.0,30.48,North,353,0.0,1.0,68,0.00,,,0.00,weatherlink.com 1.10,2013-01-11 15:12:00,
2013-01-11 10:27:00,38.3,28.0,30.48,NNE,13,0.0,1.0,66,0.00,,,0.00,weatherlink.com 1.10,2013-01-11 15:27:00,
2013-01-11 10:42:00,39.4,28.0,30.46,SE,133,0.0,2.0,63,0.00,,,0.00,weatherlink.com 1.10,2013-01-11 15:42:00,
2013-01-11 10:57:00,39.6,28.0,30.45,SE,132,0.0,1.0,63,0.00,,,0.00,weatherlink.com 1.10,2013-01-11 15:57:00,
2013-01-11 11:12:00,39.9,29.0,30.44,East,90,0.0,1.0,64,0.00,,,0.00,weatherlink.com 1.10,2013-01-11 16:12:00,
2013-01-11 11:27:00,40.1,29.0,30.43,NE,34,0.0,1.0,64,0.00,,,0.00,weatherlink.com 1.10,2013-01-11 16:27:00,
2013-01-11 11:42:00,40.6,29.0,30.42,WNW,303,0.0,2.0,64,0.00,,,0.00,weatherlink.com 1.10,2013-01-11 16:42:00,
2013-01-11 11:57:00,41.2,31.0,30.41,SSE,150,0.0,7.0,66,0.00,,,0.00,weatherlink.com 1.10,2013-01-11 16:57:00,
2013-01-11 12:12:00,40.9,31.0,30.40,SSE,155,2.0,5.0,68,0.00,,,0.00,weatherlink.com 1.10,2013-01-11 17:12:00,
2013-01-11 12:27:00,41.0,32.0,30.40,SE,133,0.0,3.0,69,0.00,,,0.00,weatherlink.com 1.10,2013-01-11 17:27:00,
2013-01-11 12:42:00,41.0,32.0,30.40,ENE,63,1.0,3.0,70,0.00,,,0.00,weatherlink.com 1.10,2013-01-11 17:42:00,
2013-01-11 12:57:00,40.8,32.0,30.40,SE,146,0.0,2.0,72,0.00,,,0.00,weatherlink.com 1.10,2013-01-11 17:57:00,
2013-01-11 13:12:00,40.8,32.0,30.38,SSE,164,1.0,2.0,72,0.00,,,0.00,weatherlink.com 1.10,2013-01-11 18:12:00,
2013-01-11 13:27:00,40.9,32.0,30.38,SE,141,1.0,2.0,71,0.00,,,0.00,weatherlink.com 1.10,2013-01-11 18:27:00,
2013-01-11 13:42:00,40.9,32.0,30.38,SW,236,1.0,1.0,71,0.00,,,0.00,weatherlink.com 1.10,2013-01-11 18:42:00,
2013-01-11 13:57:00,40.9,32.0,30.38,SSW,201,0.0,1.0,70,0.00,,,0.00,weatherlink.com 1.10,2013-01-11 18:57:00,
2013-01-11 14:12:00,40.7,32.0,30.37,WSW,256,1.0,1.0,70,0.00,,,0.00,weatherlink.com 1.10,2013-01-11 19:12:00,
2013-01-11 14:27:00,40.4,31.0,30.37,West,269,1.0,2.0,70,0.00,,,0.00,weatherlink.com 1.10,2013-01-11 19:27:00,
2013-01-11 14:42:00,40.3,32.0,30.36,SW,233,0.0,2.0,71,0.00,,,0.00,weatherlink.com 1.10,2013-01-11 19:42:00,
2013-01-11 14:57:00,40.3,31.0,30.37,SW,214,0.0,1.0,70,0.00,,,0.00,weatherlink.com 1.10,2013-01-11 19:57:00,
2013-01-11 15:12:00,40.3,31.0,30.36,SW,226,0.0,1.0,70,0.00,,,0.00,weatherlink.com 1.10,2013-01-11 20:12:00,
2013-01-11 15:27:00,39.4,31.0,30.34,SE,135,0.0,1.0,73,0.00,,,0.00,weatherlink.com 1.10,2013-01-11 20:27:00,
2013-01-11 15:42:00,39.3,31.0,30.34,SE,136,0.0,0.0,73,0.00,,,0.00,weatherlink.com 1.10,2013-01-11 20:42:00,
2013-01-11 15:58:00,39.5,31.0,30.33,SSE,160,1.0,2.0,72,0.00,,,0.00,weatherlink.com 1.10,2013-01-11 20:58:00,
2013-01-11 16:13:00,39.3,31.0,30.32,SSW,205,0.0,2.0,73,0.00,,,0.00,weatherlink.com 1.10,2013-01-11 21:13:00,
2013-01-11 16:28:00,39.6,31.0,30.32,SW,221,0.0,1.0,72,0.00,,,0.00,weatherlink.com 1.10,2013-01-11 21:28:00,
2013-01-11 16:58:00,39.7,31.0,30.32,SE,141,2.0,3.0,72,0.00,,,0.00,weatherlink.com 1.10,2013-01-11 21:58:00,
2013-01-11 17:13:00,39.6,32.0,30.30,East,96,3.0,4.0,73,0.00,,,0.00,weatherlink.com 1.10,2013-01-11 22:13:00,
2013-01-11 17:28:00,39.8,32.0,30.30,SSE,158,0.0,3.0,73,0.00,,,0.00,weatherlink.com 1.10,2013-01-11 22:28:00,
2013-01-11 17:43:00,39.9,32.0,30.30,South,190,2.0,3.0,74,0.00,,,0.00,weatherlink.com 1.10,2013-01-11 22:43:00,
2013-01-11 18:13:00,39.0,33.0,30.30,ESE,110,0.0,3.0,79,0.00,,,0.00,weatherlink.com 1.10,2013-01-11 23:13:00,
2013-01-11 18:28:00,38.8,33.0,30.30,SSE,149,0.0,2.0,80,0.00,,,0.00,weatherlink.com 1.10,2013-01-11 23:28:00,
2013-01-11 18:43:00,38.9,33.0,30.29,ESE,116,0.0,4.0,79,0.00,,,0.00,weatherlink.com 1.10,2013-01-11 23:43:00,
2013-01-11 18:58:00,39.1,33.0,30.28,SE,136,0.0,4.0,78,0.00,,,0.00,weatherlink.com 1.10,2013-01-11 23:58:00,
2013-01-11 19:13:00,39.1,33.0,30.27,SW,233,0.0,2.0,79,0.00,,,0.00,weatherlink.com 1.10,2013-01-12 00:13:00,
2013-01-11 19:28:00,39.1,33.0,30.27,SSE,160,0.0,3.0,80,0.01,,,0.01,weatherlink.com 1.10,2013-01-12 00:28:00,
2013-01-11 19:43:00,39.0,34.0,30.27,ESE,113,0.0,4.0,81,0.01,,,0.01,weatherlink.com 1.10,2013-01-12 00:43:00,
2013-01-11 19:58:00,38.9,34.0,30.27,SSE,163,0.0,4.0,82,0.01,,,0.01,weatherlink.com 1.10,2013-01-12 00:58:00,
2013-01-11 20:13:00,38.7,34.0,30.26,SSE,149,0.0,5.0,84,0.01,,,0.01,weatherlink.com 1.10,2013-01-12 01:13:00,
2013-01-11 20:28:00,38.7,35.0,30.26,SSW,203,0.0,4.0,85,0.01,,,0.02,weatherlink.com 1.10,2013-01-12 01:28:00,
2013-01-11 20:43:00,38.4,35.0,30.26,SE,135,3.0,5.0,87,0.03,,,0.04,weatherlink.com 1.10,2013-01-12 01:43:00,
2013-01-11 20:58:00,37.9,35.0,30.25,SE,145,0.0,4.0,89,0.05,,,0.06,weatherlink.com 1.10,2013-01-12 01:58:00,
2013-01-11 21:13:00,37.8,36.0,30.25,SE,141,2.0,4.0,91,0.06,,,0.07,weatherlink.com 1.10,2013-01-12 02:13:00,
2013-01-11 21:28:00,37.9,36.0,30.24,SSE,162,1.0,6.0,92,0.05,,,0.07,weatherlink.com 1.10,2013-01-12 02:28:00,
2013-01-11 21:43:00,37.9,36.0,30.24,SE,135,1.0,4.0,92,0.04,,,0.08,weatherlink.com 1.10,2013-01-12 02:43:00,
2013-01-11 21:58:00,38.0,36.0,30.24,ESE,111,1.0,6.0,92,0.03,,,0.09,weatherlink.com 1.10,2013-01-12 02:58:00,
2013-01-11 22:13:00,38.0,36.0,30.23,SE,128,2.0,5.0,93,0.03,,,0.10,weatherlink.com 1.10,2013-01-12 03:13:00,
2013-01-11 22:28:00,38.1,36.0,30.22,ESE,119,1.0,6.0,93,0.03,,,0.10,weatherlink.com 1.10,2013-01-12 03:28:00,
2013-01-11 22:43:00,38.2,36.0,30.22,East,98,2.0,8.0,93,0.02,,,0.10,weatherlink.com 1.10,2013-01-12 03:43:00,
2013-01-11 22:58:00,38.2,36.0,30.23,SE,135,0.0,6.0,93,0.01,,,0.10,weatherlink.com 1.10,2013-01-12 03:58:00,
2013-01-11 23:13:00,38.2,36.0,30.24,SE,136,1.0,6.0,93,0.01,,,0.11,weatherlink.com 1.10,2013-01-12 04:13:00,
2013-01-11 23:28:00,38.1,36.0,30.23,South,183,1.0,3.0,93,0.03,,,0.13,weatherlink.com 1.10,2013-01-12 04:28:00,
2013-01-11 23:43:00,38.0,36.0,30.24,SE,139,0.0,2.0,93,0.03,,,0.13,weatherlink.com 1.10,2013-01-12 04:43:00,
2013-01-11 23:58:00,37.9,36.0,30.24,East,94,1.0,2.0,94,0.03,,,0.00,weatherlink.com 1.10,2013-01-12 04:58:00,